Showing default

CONNECTA IOT-8, 62695

Orbit data source: Space-Track

CONNECTA IOT-8, 62695 is a payload satellite owned by Plan-S (TR) in SSO that was launched on Tue, 14 Jan 2025 UTC via an FALCON 9 launch vehicle from the Air Force Western Test Range (AFWTR). Payload-class satellites include a variety of spacecraft equipped with specific instruments for various scientific and technological missions. These include communications satellites like Starlink; space stations such as the ISS; scientific satellites like the Hubble; Earth observation satellites from companies like Planet Labs, Umbra, and HawkEye 360; GPS; miniature CubeSats for education and research; and military/defense satellites.

Loading next visibility...
Identifier
62695, 2025-009CQ
Orbit
SSO
Country
Flag of TRTR / TURK
Related business
Manufacturer
Plan-S
Mission
Operational Commercial Communications
Bus & Motor
CUBESAT 6U, Unknown motor
Mass
10 kg wet, 10 kg dry
Launch date (UTC)
2025-01-14 (1 year ago)
Launch vehicle
FALCON 9
Launch site
Air Force Western Test Range (AFWTR)
Object type
Payload
Rocket body
Debris
Shape & HBR
Box, 2.2 m
Radar Cross Section
0.080 m², Medium (>0.1 m² and < 1m²)

Expand to show TLE details & history
Last TLE update: 10 hours ago

TLE from 10 hours ago
0 CONNECTA IOT-8
1 62695U 25009CQ  26171.45539862  .00000480  00000-0  51283-4 0  9998
2 62695  97.7078 249.2431 0002832  22.3988 337.7355 14.93205596 77786
Epoch: 2026-06-20T10:55Z
TLE epoch observation values (Epoch: 2026-06-20T10:55:46.440Z)
Latitude
-0.00003°
Longitude
176.62983°
Altitude
589.167 km
Speed
7.567 km/s
True Right ascension
16h 36m 58s
True Declination
0° 00' 00"
Sunlit
Object was in full shadow at epoch
Visualization orbit readout
Latitude
Unknown
Longitude
Unknown
Altitude
Unknown
Speed
Unknown
Apparent Right ascension
Unknown
Apparent Declination
Unknown
Sunlit
N/A
Visualization observer readout
Local Sidereal Time
07:21:40
Azimuth
Unknown
Elevation
Unknown
Doppler factor
Unknown
Orbital elements
Apogee altitude
586.935 km
Perigee altitude
582.991 km
Semi-major axis
6,963.1 km
Eccentricity
0.00028
Inclination
97.7078°
RAAN
249.2431°
Arg. of periapsis
22.3988°
True anomaly
337.7232°
Mean anomaly
337.7355°
Eccentric anomaly
337.72935°
Mean motion
3.73542 °/min
Orbital period
96.37 mins
BSTAR
0.000051283
Loading maneuver chart data...
Computing Atmospheric mass density...
Loading historical data...
Loading historical data...
Loading historical data...
Loading historical data...
Loading historical data...
Loading historical data...
Loading historical data...

Documentation

Showing up to 5 results
|